Tracking 30923 objects as of 1-Jul-2025
HD Live streaming from Space Station
objects crossing your sky now

STARLINK-4216

Track STARLINK-4216 now!
10-day predictions
STARLINK-4216 is classified as:


NORAD ID: 53022
Int'l Code: 2022-076AN
Perigee: 545.8 km
Apogee: 548.0 km
Inclination: 53.2 °
Period: 95.4 minutes
Semi major axis: 6917 km
RCS: Unknown
Launch date: July 7, 2022
Source: United States (US)
Launch site: AIR FORCE EASTERN TEST RANGE (AFETR)
Your satellite tracking list
Your tracking list is empty




NASA's NSSDC Master Catalog

Two Line Element Set (TLE):
1 53022U 22076AN  25181.90076118 -.00000686  00000-0 -24988-4 0  9995
2 53022  53.2180 134.4432 0001616  91.8914 268.2263 15.08831174164974
Source of the keplerian elements: AFSPC